Погода в Усмыни

Россия / Псковская область     55°51′31″N   31°10′04″E
темп.,
°C
ветер,
м/с
пор.,
м/с
влажн.,
%
обл.,
%
осадки,
мм/ч
давл.,
гПа
погр.,
м
11 апреля, вс
вс1100:00+7ююз2378100 0.1 102187
03:00+6ююз1294100 0.8 102249
06:00+6ю119498 1.3 102329
09:00+7ююв2382100 1.4 1025202
12:00+11ю246687 0.0 1026672
15:00+14юз3654100 0.0 10261260
18:00+14ю3660100 0.0 1026297
21:00+10ююв3978100 0.0 1028176
12 апреля, пн
пн1200:00+8ююв3107899 0.0 1029232
03:00+6ююв38825 0.0 1030155
06:00+5ююв28855 0.0 1030158
09:00+9ююв49643 0.0 1029377
12:00+14юв47450 0.0 10281100
15:00+15юв47380 0.0 10251485
18:00+14юв374392 0.0 1024728
21:00+10юв3971100 0.0 1024245
13 апреля, вт
вт1300:00+8ююв3985100 0.0 1023336
03:00+8ююв2797100 0.7 1023305
06:00+8ююв2398100 0.3 1022109
09:00+11ю248354 0.3 1022382
12:00+14ююв357092 0.0 1022698
15:00+13ююв247678 0.0 1021419
18:00+15ююз1272100 0.3 1020141
21:00+12ссв1186100 1.5 102014
14 апреля, ср
ср1400:00+12ююз1290100 1.0 101934
03:00+11всв2296100 1.4 101855
06:00+10св1198100 0.8 101821
09:00+12ссз1188100 0.8 1018320
12:00+11с1293100 0.2 1018231
15:00+12с128698 0.9 1018425
18:00+9ссз4792100 0.6 1018270
21:00+6с389467 0.6 1020271
15 апреля, чт
чт1500:00+5с499481 0.0 1019296
03:00+5ссв41095100 0.8 1019349
06:00+5ссв4995100 0.0 1019366
09:00+5ссв41094100 0.1 1019408
12:00+5ссв41093100 1.3 1020475
15:00+6ссв51190100 1.3 1020570
18:00+5ссв51289100 0.1 1021665
21:00+5св61482100 0.1 1022835